Amarillo, TX

9:56 AM CST on December 09, 2019 (GMT -0600)
Amarillo International

Weather History for KAMA - June, 2019

Change the Weather History Date:

Thursday, June 6, 2019

  Actual Average Record
Temperature  
Mean Temperature 68 °F 72 °F  
Max Temperature 78 °F 85 °F 102 °F (1982)
Min Temperature 57 °F 59 °F 41 °F (1998)
Degree Days  
Heating Degree Days 0 0  
Month to date heating degree days 0 5  
Since 1 June heating degree days 0 5  
Since 1 July heating degree days 4102 4176  
Cooling Degree Days 3 7  
Month to date cooling degree days 31 40  
Year to date cooling degree days 93 165  
Since 1 June cooling degree days 31 40  
Growing Degree Days 18 (Base 50)    
Moisture  
Dew Point 57 °F    
Average Humidity 0    
Maximum Humidity 0    
Minimum Humidity 0    
Precipitation  
Precipitation 0.16 in 0.11 in 1.98 in (2014)
Month to date precipitation 2.50 0.68  
Year to date precipitation 10.28 7.04  
Snow  
Snow 0.00 in 0.00 in 0.00 in ()
Month to date snowfall 0.0 0.0  
Since 1 June snowfall 0.0 0.0  
Since 1 July snowfall 8.1 17.8  
Snow Depth 0.00 in    
Sea Level Pressure  
Sea Level Pressure 29.86 in    
Wind  
Wind Speed 9 mph (NNW)    
Max Wind Speed 16 mph    
Max Gust Speed 35 mph    
Visibility 9 miles    
Events Rain , Thunderstorm    
T = Trace of Precipitation, MM = Missing Value Source: NWS Daily Summary

Daily Weather History Graph

Daily Weather History Graph

Search for Another Location

Airport or City:

Astronomy

Jun. 06, 2019 Rise Set
Actual Time 6:32 AM CDT 8:58 PM CDT
Civil Twilight 6:02 AM CDT 9:28 PM CDT
Nautical Twilight 5:26 AM CDT 10:04 PM CDT
Astronomical Twilight 4:46 AM CDT 10:45 PM CDT
Moon 9:42 AM CDT (6/6) No Moon Set
Length of Visible Light 15h 25m
Length of Day
14h 26m
Waxing Crescent, 14% of the Moon is Illuminated
Jun 6
Waxing Crescent
Jun 10
First Quarter
Jun 17
Full
Jun 25
Last Quarter
Jul 2
New

Hourly Weather History & Observations

Time (CDT) Temp. Dew Point Humidity Pressure Visibility Wind Dir Wind Speed Gust Speed Precip Events Conditions
12:53 AM 59.0 °F 54.0 °F 83% 29.84 in 10.0 mi NW 5.8 mph - N/A   Overcast
1:53 AM 59.0 °F 55.0 °F 87% 29.82 in 10.0 mi NW 6.9 mph - N/A   Overcast
2:53 AM 59.0 °F 55.0 °F 87% 29.81 in 10.0 mi Calm Calm - N/A   Overcast
3:53 AM 59.0 °F 55.0 °F 87% 29.79 in 10.0 mi NW 4.6 mph - N/A   Mostly Cloudy
4:53 AM 59.0 °F 55.0 °F 87% 29.81 in 10.0 mi North 5.8 mph - 0.00 in Rain Light Rain
5:53 AM 57.9 °F 55.9 °F 93% 29.82 in 10.0 mi North 9.2 mph - 0.02 in Rain Light Rain
6:53 AM 57.9 °F 55.9 °F 93% 29.85 in 10.0 mi North 10.4 mph - 0.01 in Rain Light Rain
7:53 AM 59.0 °F 55.9 °F 90% 29.86 in 10.0 mi NNW 3.5 mph - 0.02 in   Mostly Cloudy
8:53 AM 60.1 °F 57.0 °F 90% 29.87 in 10.0 mi NW 6.9 mph - N/A   Partly Cloudy
9:23 AM 61.0 °F 57.0 °F 87% 29.95 in 10.0 mi West 10.4 mph - N/A   Scattered Clouds
9:53 AM 62.1 °F 57.0 °F 84% 29.87 in 10.0 mi WNW 10.4 mph - N/A   Scattered Clouds
10:53 AM 66.9 °F 57.9 °F 73% 29.85 in 10.0 mi NNW 13.8 mph - N/A   Partly Cloudy
11:53 AM 72.0 °F 57.9 °F 61% 29.83 in 10.0 mi NW 10.4 mph - N/A   Clear
12:53 PM 75.0 °F 59.0 °F 57% 29.83 in 10.0 mi NW 10.4 mph - N/A   Partly Cloudy
1:53 PM 77.0 °F 59.0 °F 54% 29.82 in 10.0 mi North 16.1 mph - N/A   Mostly Cloudy
2:53 PM 73.9 °F 62.1 °F 66% 29.82 in 10.0 mi West 15.0 mph - N/A   Scattered Clouds
3:08 PM 66.0 °F 52.0 °F 60% 29.96 in 9.0 mi NNW 19.6 mph 34.5 mph N/A Thunderstorm Mostly Cloudy
3:16 PM 61.0 °F 55.0 °F 81% 29.95 in 1.0 mi North 20.7 mph 32.2 mph 0.07 in Rain , Thunderstorm Heavy Rain
3:22 PM 61.0 °F 55.9 °F 83% 29.96 in 1.2 mi NNE 15.0 mph 28.8 mph 0.10 in Rain , Thunderstorm Thunderstorms and Rain
3:25 PM 61.0 °F 55.9 °F 83% 29.96 in 4.0 mi NNE 16.1 mph 24.2 mph 0.10 in Rain , Thunderstorm Light Thunderstorms and Rain
3:43 PM 64.0 °F 57.0 °F 78% 29.95 in 10.0 mi ENE 12.7 mph 16.1 mph 0.11 in Rain , Thunderstorm Light Rain
3:50 PM 64.4 °F 55.4 °F 73% 29.95 in 10.0 mi ENE 6.9 mph - 0.11 in   Mostly Cloudy
3:53 PM 64.0 °F 55.9 °F 75% 29.85 in 10.0 mi Variable 4.6 mph - 0.11 in   Mostly Cloudy
4:53 PM 66.0 °F 57.9 °F 75% 29.82 in 10.0 mi WSW 8.1 mph - N/A   Clear
5:53 PM 71.1 °F 60.1 °F 68% 29.81 in 10.0 mi West 5.8 mph - N/A   Clear
6:53 PM 75.0 °F 60.1 °F 60% 29.80 in 10.0 mi NNW 11.5 mph - N/A   Clear
7:53 PM 73.9 °F 57.9 °F 57% 29.80 in 10.0 mi NNW 9.2 mph - N/A   Clear
8:53 PM 71.1 °F 59.0 °F 66% 29.81 in - North - - N/A   Unknown
9:53 PM 68.0 °F 59.0 °F 73% 29.83 in 10.0 mi NNW 3.5 mph - N/A   Clear
10:53 PM 64.0 °F 61.0 °F 90% 29.85 in 10.0 mi NE 9.2 mph - N/A   Clear
11:53 PM - - N/A% 29.97 in - North - - N/A   Unknown